Regional Weather Roundup
Issued by NWS

Home | Current Version | Previous Version | Graphics & Text | Print | Product List | Glossary On
Versions: 1 2 3 4 5 6 7 8 9 10 11 12 13 14 15 16 17 18 19 20 21 22 23 24 25 26 27 28 29 30 31 32 33 34 35 36 37
000
ASUS43 KDMX 220707
RWRIA

WEATHER ROUNDUP FOR IOWA
NATIONAL WEATHER SERVICE DES MOINES IA
200 AM CDT WED OCT 22 2014

NOTE: "FAIR" INDICATES FEW OR NO CLOUDS BELOW 12,000 FEET WITH NO
SIGNIFICANT WEATHER AND/OR OBSTRUCTIONS TO VISIBILITY.

* - THESE STATIONS ARE NOT NWS STATIONS...THUS NOT UNDER NWS
QUALITY CONTROL.  THEY ALSO DO NOT REPORT WEATHER SUCH
AS PRECIPITATION OR FOG.

IAZ001>003-012>014-020>022-031>034-043>046-220800-
   NORTHWEST IOWA

CITY           SKY/WX    TMP DP  RH WIND       PRES   REMARKS
CARROLL *      CLOUDY    45  41  87 SE6       30.14R
CHEROKEE *     CLEAR     50  45  81 S8        30.10R
DENISON *      CLOUDY    52  45  76 SE8G16    30.09R
LE MARS *      MOCLDY    55  45  67 S12       30.06S
ORANGE CITY *  CLEAR     52  45  76 SE12G17   30.06S
SHELDON *      MOCLDY    50  43  76 SE16G23   30.06S
SIOUX CITY     CLOUDY    55  46  71 SE9       30.06R
SPENCER        CLEAR     47  40  76 SE14      30.11S
STORM LAKE *   CLEAR     46  41  81 SE16      30.11S
$$

IAZ055>058-069>071-079>083-090>094-220800-
   SOUTHWEST IOWA

CITY           SKY/WX    TMP DP  RH WIND       PRES   REMARKS
ATLANTIC *     CLOUDY    54  43  66 SE7G16    30.11F
AUDUBON *      MOCLDY    50  41  71 SE6       30.14R
CLARINDA *     MOCLDY    55  45  67 SE8       30.14S
COUNCIL BLFS * CLOUDY    54  46  76 SE15      30.08R
CRESTON *      PTCLDY    46  43  87 SE9       30.15S
HARLAN  *      CLOUDY    55  45  67 S9G20     30.14S
LAMONI         CLEAR     48  40  73 SE5       30.17R
RED OAK *      MOCLDY    55  45  67 SE8       30.11S
SHENANDOAH *   MOCLDY    55  45  67 SE13      30.11R
$$

IAZ047>049-059>061-072>074-084-220800-
   CENTRAL IOWA

CITY           SKY/WX    TMP DP  RH WIND       PRES   REMARKS
AMES           CLEAR     44  37  76 SE7       30.19R
ANKENY *       CLEAR     45  39  81 SE6       30.19S
CHARITON *     PTCLDY    48  39  71 SE13      30.19R
DES MOINES     CLEAR     49  39  68 SE9       30.19R
GRINNELL*      CLEAR     41  37  87 E8        30.22S
KNOXVILLE *    CLEAR     45  37  76 SE7       30.19R
MARSHALLTOWN   CLEAR     42  37  82 SE10      30.21R
PELLA *        CLEAR     43  37  81 SE7       30.22S
PERRY *          N/A     45  41  87 SE6       30.16S
$$

IAZ004>006-015-016-023>025-035-036-220800-
   NORTH CENTRAL IOWA

CITY           SKY/WX    TMP DP  RH WIND       PRES   REMARKS
ALGONA *       CLEAR     46  39  76 SE13      30.16R
CLARION *      CLEAR     43  39  87 SE13G20   30.18S
ESTHERVILLE    CLEAR     45  39  79 SE16      30.12S
FORT DODGE *   CLEAR     46  36  66 SE12      30.16S
MASON CITY     CLEAR     40  37  89 SE8       30.21R WCI  34
FOREST CITY *  CLEAR     43  37  81 SE13G18   30.19R
IOWA FALLS *     N/A     41  37  87 SE8       30.21S
$$

IAZ007>011-017>019-026>030-037>042-050>054-066-220800-
   NORTHEAST IOWA

CITY           SKY/WX    TMP DP  RH WIND       PRES   REMARKS
CEDAR RAPIDS   CLEAR     38  37  97 SE6       30.24R WCI  33
CHARLES CITY * CLEAR     41  37  87 SE9       30.23R
CLINTON *      CLEAR     36  32  87 E6        30.30S WCI  31
DECORAH *      CLEAR     39  36  87 SE8G15    30.24S WCI  34
DUBUQUE        CLEAR     36  34  92 E3        30.27R
MONTICELLO *   CLEAR     39  37  93 E5        30.26S
OELWEIN *      CLEAR     39  37  93 SE10      30.24S WCI  32
WATERLOO       CLEAR     40  36  86 SE9       30.22S WCI  34
$$

IAZ064-065-067-068-078-220800-
   EAST CENTRAL IOWA

CITY           SKY/WX    TMP DP  RH WIND       PRES   REMARKS
DAVENPORT      CLEAR     37  33  85 E8        30.27R WCI  31
IOWA CITY      CLEAR     40  37  89 E5        30.26R
MT. PLEASANT * CLEAR     41  37  87 E6        30.25R
MUSCATINE *    CLEAR     39  36  87 CALM      30.27R
QUAD CITIES    CLEAR     34  32  92 E7        30.27R WCI  28
$$

IAZ062-063-075>077-085>089-095>099-220800-
   SOUTHEAST IOWA

CITY           SKY/WX    TMP DP  RH WIND       PRES   REMARKS
BURLINGTON     CLEAR     43  39  86 E8        30.25R
FAIRFIELD *    CLEAR     41  37  87 E8        30.23R
FORT MADISON * CLEAR     46  43  87 E8        30.25R
KEOKUK *       MIX PCPN  45  41  87 E14       30.23R
OSKALOOSA *      N/A     41  37  87 SE7       30.22S
CENTERVILLE *  CLEAR     45  39  81 E7        30.20F
WASHINGTON *   CLEAR     41  41 100 SE8       30.24S
$$

ABBREVIATIONS USED IN REMARKS
   TC - TEMPERATURES IN CELSIUS
  WCI - WIND CHILL INDEX
   HX - HEAT INDEX
  VSB - VISIBILITY
$$




USA.gov is the U.S. government's official web portal to all federal, state and local government web resources and services.